• In Netherlands
  • List of Countries
  • For 7 days
  • Water Temperature
  • Satellite Maps
  • Weather Map
  • Weather Widgets
  • user-avatar
    Login

    Hourly Weather Adelaide

    Today, 24 February, Friday

    Time Temperature Precipitation Wind Pressure Humidity
    00:00 +16°C° 0 mm 3 mps 764 mmHg 85%
    01:00 +16°C° 0 mm 3 mps 764 mmHg 86%
    02:00 +15°C° 0 mm 2 mps 764 mmHg 87%
    03:00 +15°C° 0 mm 2 mps 764 mmHg 88%
    04:00 +15°C° 0 mm 2 mps 764 mmHg 87%
    05:00 +15°C° 0 mm 2 mps 765 mmHg 87%
    06:00 +15°C° 0 mm 2 mps 765 mmHg 86%
    07:00 +17°C° 0 mm 3 mps 765 mmHg 76%
    08:00 +19°C° 0 mm 3 mps 765 mmHg 66%
    09:00 +21°C° 0 mm 3 mps 766 mmHg 56%
    10:00 +22°C° 0 mm 4 mps 765 mmHg 51%
    11:00 +23°C° 0 mm 4 mps 765 mmHg 47%
    12:00 +25°C° 0 mm 4 mps 765 mmHg 43%
    13:00 +25°C° 0 mm 5 mps 765 mmHg 43%
    14:00 +25°C° 0 mm 5 mps 764 mmHg 44%
    15:00 +24°C° 0 mm 6 mps 764 mmHg 45%
    16:00 +23°C° 0 mm 6 mps 764 mmHg 51%
    17:00 +21°C° 0 mm 6 mps 764 mmHg 56%
    18:00 +20°C° 0 mm 6 mps 764 mmHg 62%
    19:00 +19°C° 0 mm 5 mps 764 mmHg 67%
    20:00 +17°C° 0 mm 5 mps 765 mmHg 72%
    21:00 +16°C° 0 mm 5 mps 765 mmHg 77%
    22:00 +16°C° 0 mm 5 mps 765 mmHg 78%
    23:00 +15°C° 0 mm 4 mps 765 mmHg 80%

    Tomorrow, 25 February, Saturday

    Time Temperature Precipitation Wind Pressure Humidity
    00:00 +15°C° 0 mm 4 mps 765 mmHg 82%
    01:00 +15°C° 0 mm 4 mps 764 mmHg 82%
    02:00 +15°C° 0 mm 4 mps 764 mmHg 82%
    03:00 +14°C° 0 mm 4 mps 764 mmHg 82%
    04:00 +14°C° 0 mm 4 mps 764 mmHg 81%
    05:00 +14°C° 0 mm 4 mps 764 mmHg 80%
    06:00 +14°C° 0 mm 4 mps 765 mmHg 79%
    07:00 +15°C° 0 mm 4 mps 765 mmHg 70%
    08:00 +18°C° 0 mm 4 mps 765 mmHg 62%
    09:00 +20°C° 0 mm 4 mps 765 mmHg 53%
    10:00 +21°C° 0 mm 4 mps 764 mmHg 48%
    11:00 +23°C° 0 mm 4 mps 764 mmHg 43%
    12:00 +26°C° 0 mm 4 mps 763 mmHg 37%
    13:00 +26°C° 0 mm 4 mps 763 mmHg 38%
    14:00 +26°C° 0 mm 5 mps 762 mmHg 38%
    15:00 +26°C° 0 mm 5 mps 762 mmHg 38%
    16:00 +23°C° 0 mm 5 mps 762 mmHg 45%
    17:00 +22°C° 0 mm 5 mps 762 mmHg 51%
    18:00 +20°C° 0 mm 5 mps 762 mmHg 57%
    19:00 +19°C° 0 mm 5 mps 762 mmHg 63%
    20:00 +17°C° 0 mm 5 mps 762 mmHg 69%
    21:00 +17°C° 0 mm 4 mps 762 mmHg 75%
    22:00 +15°C° 0 mm 4 mps 762 mmHg 75%
    23:00 +15°C° 0 mm 4 mps 762 mmHg 76%

    Day after tomorrow, 26 February, Sunday

    Time Temperature Precipitation Wind Pressure Humidity
    00:00 +16°C° 0 mm 3 mps 762 mmHg 77%
    01:00 +16°C° 0 mm 3 mps 761 mmHg 75%
    02:00 +14°C° 0 mm 3 mps 761 mmHg 74%
    03:00 +14°C° 0 mm 3 mps 761 mmHg 72%
    04:00 +14°C° 0 mm 3 mps 761 mmHg 71%
    05:00 +15°C° 0 mm 2 mps 761 mmHg 70%
    06:00 +14°C° 0 mm 2 mps 761 mmHg 69%
    07:00 +17°C° 0 mm 2 mps 761 mmHg 59%
    08:00 +20°C° 0 mm 2 mps 762 mmHg 48%
    09:00 +24°C° 0 mm 1 mps 762 mmHg 38%
    10:00 +26°C° 0 mm 2 mps 761 mmHg 34%
    11:00 +28°C° 0 mm 2 mps 761 mmHg 29%
    12:00 +30°C° 0 mm 2 mps 760 mmHg 25%
    13:00 +30°C° 0 mm 2 mps 760 mmHg 25%
    14:00 +30°C° 0 mm 3 mps 759 mmHg 26%
    15:00 +30°C° 0 mm 4 mps 759 mmHg 26%
    16:00 +28°C° 0 mm 4 mps 759 mmHg 30%
    17:00 +27°C° 0 mm 4 mps 759 mmHg 35%
    18:00 +25°C° 0 mm 4 mps 759 mmHg 39%
    19:00 +24°C° 0 mm 3 mps 759 mmHg 44%
    20:00 +21°C° 0 mm 3 mps 760 mmHg 49%
    21:00 +19°C° 0 mm 3 mps 760 mmHg 55%
    22:00 +19°C° 0 mm 3 mps 760 mmHg 57%
    23:00 +19°C° 0 mm 3 mps 760 mmHg 59%

    27 February, Monday

    Time Temperature Precipitation Wind Pressure Humidity
    00:00 +19°C° 0 mm 3 mps 760 mmHg 62%
    01:00 +18°C° 0 mm 3 mps 759 mmHg 64%
    02:00 +18°C° 0 mm 2 mps 759 mmHg 66%
    03:00 +18°C° 0 mm 2 mps 759 mmHg 68%
    04:00 +18°C° 0 mm 2 mps 759 mmHg 67%
    05:00 +19°C° 0 mm 2 mps 760 mmHg 66%
    06:00 +19°C° 0 mm 2 mps 760 mmHg 65%
    07:00 +23°C° 0 mm 2 mps 760 mmHg 55%
    08:00 +27°C° 0 mm 2 mps 760 mmHg 45%
    09:00 +30°C° 0 mm 2 mps 760 mmHg 35%
    10:00 +32°C° 0 mm 2 mps 760 mmHg 31%
    11:00 +35°C° 0 mm 2 mps 759 mmHg 27%
    12:00 +38°C° 0 mm 2 mps 759 mmHg 22%
    13:00 +37°C° 0 mm 3 mps 758 mmHg 23%
    14:00 +37°C° 0 mm 3 mps 758 mmHg 23%
    15:00 +37°C° 0 mm 4 mps 757 mmHg 24%
    16:00 +35°C° 0 mm 4 mps 757 mmHg 28%
    17:00 +33°C° 0 mm 4 mps 758 mmHg 31%
    18:00 +32°C° 0 mm 4 mps 758 mmHg 35%
    19:00 +29°C° 0 mm 3 mps 758 mmHg 39%
    20:00 +28°C° 0 mm 3 mps 759 mmHg 42%
    21:00 +27°C° 0 mm 3 mps 759 mmHg 46%
    22:00 +26°C° 0 mm 3 mps 759 mmHg 48%
    23:00 +26°C° 0 mm 2 mps 759 mmHg 50%

    28 February, Tuesday

    Time Temperature Precipitation Wind Pressure Humidity
    00:00 +25°C° 0 mm 2 mps 758 mmHg 52%
    01:00 +25°C° 0 mm 2 mps 758 mmHg 52%
    02:00 +25°C° 0 mm 2 mps 758 mmHg 52%
    03:00 +24°C° 0 mm 2 mps 758 mmHg 52%
    04:00 +24°C° 0 mm 2 mps 758 mmHg 51%
    05:00 +24°C° 0 mm 2 mps 759 mmHg 50%
    06:00 +24°C° 0 mm 2 mps 759 mmHg 50%
    07:00 +27°C° 0 mm 2 mps 759 mmHg 42%
    08:00 +30°C° 0 mm 2 mps 759 mmHg 34%
    09:00 +34°C° 0 mm 2 mps 759 mmHg 26%
    10:00 +36°C° 0 mm 2 mps 759 mmHg 24%
    11:00 +38°C° 0 mm 2 mps 759 mmHg 21%
    12:00 +39°C° 0 mm 2 mps 758 mmHg 19%
    13:00 +39°C° 0 mm 2 mps 758 mmHg 19%
    14:00 +38°C° 0 mm 3 mps 757 mmHg 20%
    15:00 +38°C° 0 mm 3 mps 757 mmHg 20%
    16:00 +37°C° 0 mm 3 mps 757 mmHg 23%
    17:00 +35°C° 0 mm 3 mps 757 mmHg 25%
    18:00 +33°C° 0 mm 3 mps 757 mmHg 28%
    19:00 +31°C° 0 mm 3 mps 758 mmHg 31%
    20:00 +29°C° 0 mm 3 mps 758 mmHg 33%
    21:00 +28°C° 0 mm 3 mps 759 mmHg 36%
    22:00 +27°C° 0 mm 3 mps 759 mmHg 38%
    23:00 +27°C° 0 mm 3 mps 758 mmHg 39%

    1 March, Wednesday

    Time Temperature Precipitation Wind Pressure Humidity
    00:00 +26°C° 0 mm 3 mps 758 mmHg 40%
    01:00 +25°C° 0 mm 2 mps 758 mmHg 42%
    02:00 +25°C° 0 mm 2 mps 758 mmHg 45%
    03:00 +24°C° 0 mm 1 mps 758 mmHg 47%
    04:00 +24°C° 0 mm 1 mps 758 mmHg 47%
    05:00 +24°C° 0 mm 1 mps 758 mmHg 46%
    06:00 +24°C° 0 mm 1 mps 759 mmHg 46%
    07:00 +27°C° 0 mm 1 mps 759 mmHg 39%
    08:00 +31°C° 0 mm 1 mps 759 mmHg 31%
    09:00 +35°C° 0 mm 1 mps 759 mmHg 24%
    10:00 +36°C° 0 mm 1 mps 759 mmHg 22%
    11:00 +38°C° 0 mm 2 mps 758 mmHg 20%
    12:00 +39°C° 0 mm 2 mps 758 mmHg 17%
    13:00 +38°C° 0 mm 3 mps 758 mmHg 18%
    14:00 +38°C° 0 mm 3 mps 757 mmHg 18%
    15:00 +37°C° 0 mm 3 mps 757 mmHg 18%
    16:00 +36°C° 0 mm 3 mps 757 mmHg 21%
    17:00 +34°C° 0 mm 3 mps 758 mmHg 24%
    18:00 +33°C° 0 mm 3 mps 758 mmHg 27%
    19:00 +30°C° 0 mm 3 mps 758 mmHg 32%
    20:00 +28°C° 0 mm 3 mps 758 mmHg 37%
    21:00 +26°C° 0 mm 3 mps 759 mmHg 42%
    22:00 +26°C° 0 mm 2 mps 759 mmHg 43%
    23:00 +25°C° 0 mm 2 mps 758 mmHg 44%
    Show more